User: anonymous
Location: Dayton
(39.7590°N, 84.1920°W)
Time: 22:14:51
(UTC-04:00)
Language:

Cosmos 1939 Rocket - Orbit

View from above orbital plane
View from above orbital plane
View from above satellite
View from above satellite

Ground track
Ground track

The orbit data is extracted from the following two-line orbital elements,

1 19046U 88032B   14242.13888040  .00000921  00000-0  78627-4 0  9644
2 19046 097.6398 295.3842 0036440 210.6544 149.2551 14.99649401419284
Epoch (UTC): 30 August 2014 03:19:59
Eccentricity: 0.0036440
inclination: 97.6398°
perigee height: 542 km
apogee height: 593 km
right ascension of ascending node: 295.3842°
argument of perigee: 210.6544°
revolutions per day: 14.99649401
mean anomaly at epoch: 149.2551°
orbit number at epoch: 41928

The dashed part of the orbit path shows where the satellite is in the earth's shadow,  

DLR